This is the latest recevied weather packets stored in our database for station/object KG5MMT-12. If no packets are shown the sender has not sent any weather packets the latest 1 day(s).
| Time | Temp. | Humidity | Pressure | Rain* | Wind** | Luminosity | Snow |
|---|---|---|---|---|---|---|---|
| 1778054328 | 7.78° C | 53% | 0 hPa | 0 mm | 0.45 m/s, 233° | - | - |
| 1778054028 | 7.78° C | 53% | 0 hPa | 0 mm | 0.89 m/s, 285° | - | - |
| 1778053728 | 8.33° C | 53% | 0 hPa | 0 mm | 3.58 m/s, 248° | - | - |
| 1778053428 | 8.33° C | 53% | 0 hPa | 0 mm | 0 m/s | - | - |
| 1778053128 | 8.33° C | 56% | 0 hPa | 0 mm | 0 m/s | - | - |
| 1778052828 | 8.33° C | 53% | 0 hPa | 0 mm | 0.89 m/s, 246° | - | - |
| 1778052528 | 8.33° C | 52% | 0 hPa | 0 mm | 1.34 m/s, 253° | - | - |
| 1778052228 | 8.33° C | 53% | 0 hPa | 0 mm | 0.89 m/s, 299° | - | - |
| 1778051928 | 8.33° C | 53% | 0 hPa | 0 mm | 0.45 m/s, 299° | - | - |
| 1778051628 | 7.78° C | 54% | 0 hPa | 0 mm | 0.89 m/s, 220° | - | - |
| 1778051328 | 7.78° C | 57% | 0 hPa | 0 mm | 2.68 m/s, 232° | - | - |
| 1778051028 | 7.78° C | 58% | 0 hPa | 0 mm | 1.79 m/s, 257° | - | - |
| 1778050728 | 7.78° C | 58% | 0 hPa | 0 mm | 1.34 m/s, 147° | - | - |
| 1778050428 | 7.78° C | 57% | 0 hPa | 0 mm | 3.13 m/s, 341° | - | - |
| 1778050128 | 7.78° C | 55% | 0 hPa | 0 mm | 2.24 m/s, 282° | - | - |
| 1778049828 | 7.78° C | 56% | 0 hPa | 0 mm | 1.79 m/s, 258° | - | - |
| 1778049528 | 7.78° C | 57% | 0 hPa | 0 mm | 2.24 m/s, 260° | - | - |
| 1778049228 | 7.78° C | 59% | 0 hPa | 0 mm | 1.79 m/s, 257° | - | - |
| 1778048928 | 7.22° C | 60% | 0 hPa | 0 mm | 1.79 m/s, 233° | - | - |
| 1778048328 | 7.22° C | 64% | 0 hPa | 0 mm | 3.58 m/s, 222° | - | - |
| 1778048028 | 7.22° C | 65% | 0 hPa | 0 mm | 1.79 m/s, 230° | - | - |
| 1778047428 | 6.67° C | 67% | 0 hPa | 0.25 mm | 2.68 m/s, 264° | - | - |
| 1778047128 | 7.22° C | 69% | 0 hPa | 0.25 mm | 0.89 m/s, 277° | - | - |
| 1778046828 | 7.22° C | 69% | 0 hPa | 0.25 mm | 0.89 m/s, 182° | - | - |
| 1778046228 | 7.22° C | 71% | 0 hPa | 0.25 mm | 1.34 m/s, 277° | - | - |
* Rain latest hour (hover to see other rain measurements)
** Current wind speed in m/s (hover to see current wind gust speed)